Flag for U.S.A. Weather past 2 weeks in Menominee, Michigan, U.S.A.

Now
54 °F

Clear.


Feels Like: 53 °F
Forecast: 47 / 68 °F
Wind: 5 mph from West

Location: Menominee Weather Reporting Station

Current Time: Sep 23, 2014 at 1:59:20 AM

Latest Report: Sep 23, 2014 at 1:35 AM


Visibility: 10 mi

Pressure: 30.18 "Hg

Humidity: 77%

Dew point: 46 °F

Location of MenomineeLocation

Historic Weather in Menominee — Graph

°F

Menominee temperature yesterday

Maximum temperature yesterday: 68 °F (at 3:35 PM)
Minimum temperature yesterday: 37 °F (at 12:15 AM)
Average temperature yesterday: 52 °F

Past Weeks' High & Low Weather Summary

 TemperatureHumidityPressure
High77 °F (Sep 9, 1:55 PM)94% (Sep 8, 6:15 AM)30.40 "Hg (Sep 8, 6:15 AM)
Low37 °F (Sep 12, 2:15 AM)43% (Sep 16, 2:15 PM)29.42 "Hg (Sep 10, 1:35 PM)
Average55 °F74%30.04 "Hg
* Reported Sep 8 12:15 AM — Sep 23 12:55 AM, Menominee, Weather by CustomWeather, © 2014

Note: Actual official high and low records may vary slightly from our data, if they occured in-between our weather recording intervals... More about our weather records

Advertising

Menominee weather history for previous 24 hours

 ConditionsComfort  
Time TempWeatherWind HumidityBarometerVisibility
12:55 AM
Sep 23
54 °FClear.3 mph77%30.17 "Hg10 mi
12:35 AM54 °FClear.7 mph82%30.17 "Hg10 mi
12:15 AM54 °FClear.5 mph82%30.17 "Hg10 mi
11:55 PM
Sep 22
54 °FClear.6 mph82%30.17 "Hg10 mi
11:35 PM54 °FClear.5 mph82%30.17 "Hg10 mi
11:15 PM54 °FClear.5 mph82%30.17 "Hg10 mi
10:55 PM54 °FClear.5 mph82%30.17 "Hg10 mi
10:35 PM55 °FClear.5 mph77%30.17 "Hg10 mi
10:15 PM55 °FClear.5 mph77%30.17 "Hg10 mi
9:55 PM55 °FClear.5 mph77%30.16 "Hg10 mi
9:35 PM55 °FClear.3 mph77%30.16 "Hg10 mi
9:15 PM55 °FClear.3 mph77%30.15 "Hg10 mi
8:55 PM55 °FClear.3 mph77%30.15 "Hg10 mi
8:35 PM57 °FClear.6 mph72%30.15 "Hg10 mi
8:15 PM57 °FClear.5 mph72%30.14 "Hg10 mi
7:55 PM59 °FClear.3 mph68%30.14 "Hg10 mi
7:35 PM61 °FClear.6 mph63%30.13 "Hg10 mi
7:15 PM61 °FClear.5 mph63%30.13 "Hg10 mi
6:55 PM63 °FClear.5 mph59%30.12 "Hg10 mi
6:35 PM63 °FSunny.6 mph59%30.12 "Hg10 mi
6:15 PM64 °FSunny.5 mph56%30.12 "Hg10 mi
5:55 PM66 °FSunny.5 mph52%30.12 "Hg10 mi
5:35 PM66 °FSunny.5 mph49%30.12 "Hg10 mi
5:15 PM66 °FSunny.7 mph49%30.12 "Hg10 mi
4:55 PM68 °FSunny.8 mph49%30.11 "Hg10 mi
4:35 PM68 °FSunny.7 mph49%30.12 "Hg10 mi
4:15 PM68 °FSunny.8 mph49%30.12 "Hg10 mi
3:55 PM66 °FPassing clouds.7 mph52%30.12 "Hg10 mi
3:35 PM68 °FPassing clouds.10 mph49%30.12 "Hg10 mi
3:15 PM66 °FScattered clouds.7 mph49%30.13 "Hg10 mi
2:55 PM66 °FScattered clouds.12 mph49%30.13 "Hg10 mi
2:35 PM66 °FPartly sunny.10 mph52%30.13 "Hg10 mi
2:15 PM66 °FScattered clouds.10 mph52%30.14 "Hg10 mi
1:55 PM64 °FPartly sunny.9 mph56%30.15 "Hg10 mi
1:35 PM66 °FBroken clouds.8 mph52%30.16 "Hg10 mi
12:55 PM63 °FScattered clouds.7 mph59%30.17 "Hg10 mi
12:35 PM63 °FPartly sunny.8 mph56%30.18 "Hg10 mi
12:15 PM61 °FOvercast.7 mph63%30.18 "Hg10 mi
11:55 AM59 °FOvercast.7 mph68%30.18 "Hg10 mi
11:35 AM57 °FOvercast.8 mph67%30.19 "Hg10 mi
11:15 AM55 °FOvercast.6 mph72%30.19 "Hg10 mi
10:55 AM54 °FOvercast.5 mph72%30.20 "Hg10 mi
10:35 AM52 °FOvercast.3 mph77%30.20 "Hg10 mi
10:15 AM52 °FOvercast.3 mph77%30.20 "Hg10 mi
9:55 AM48 °FOvercast.6 mph82%30.20 "Hg10 mi
9:35 AM48 °FOvercast.6 mph82%30.20 "Hg10 mi
9:15 AM46 °FOvercast.5 mph87%30.20 "Hg10 mi
8:55 AM45 °FOvercast.5 mph93%30.19 "Hg10 mi
8:35 AM45 °FScattered clouds.5 mph81%30.20 "Hg10 mi
8:15 AM43 °FSunny.3 mph87%30.20 "Hg10 mi
7:55 AM41 °FSunny.5 mph87%30.19 "Hg10 mi
7:35 AM39 °FSunny.5 mph93%30.19 "Hg10 mi
7:15 AM39 °FSunny.No wind87%30.19 "Hg10 mi
6:55 AM39 °FSunny.3 mph87%30.19 "Hg10 mi
6:35 AM39 °FClear.No wind87%30.18 "Hg10 mi
5:55 AM37 °FClear.3 mph93%30.18 "Hg10 mi
5:35 AM37 °FClear.5 mph93%30.18 "Hg10 mi
5:15 AM39 °FClear.3 mph87%30.18 "Hg10 mi
4:55 AM37 °FClear.5 mph93%30.17 "Hg10 mi
4:35 AM39 °FClear.3 mph87%30.16 "Hg10 mi
3:55 AM37 °FClear.3 mph93%30.16 "Hg10 mi
3:35 AM39 °FClear.No wind87%30.16 "Hg10 mi
3:15 AM37 °FClear.3 mph93%30.15 "Hg10 mi
2:55 AM37 °FClear.3 mph93%30.15 "Hg10 mi
2:35 AM39 °FClear.3 mph87%30.15 "Hg10 mi
2:15 AM39 °FClear.5 mph87%30.15 "Hg10 mi
1:55 AM39 °FClear.3 mph93%30.15 "Hg10 mi
1:35 AM39 °FClear.3 mph93%30.15 "Hg10 mi
Weather by CustomWeather, © 2014

See weather overviewHow to use our weather pages